QPF
0.03 0.07 0.06 0.03 0.03 0.02 0.01 0.00 0.00 0.00 0.00 0.00 0.00 0.00 0.01 0.01 0.02 0.02 0.01 0.00 0.00 0.00 0.00 0.01 0.01 0.02 0.02 0.01 0.01 0.01 0.02 0.02 0.02 0.01 0.01 0.01 0.02 0.03 0.03 0.03 0.04 0.04 0.03 0.03 0.03 0.02 0.02 0.02 0.03
0.03 0.06 0.07 0.05 0.03 0.02 0.01 0.00 0.00 0.00 0.00 0.00 0.00 0.00 0.00 0.01 0.01 0.01 0.00 0.00 0.00 0.01 0.00 0.00 0.01 0.02 0.03 0.01 0.01 0.02 0.02 0.02 0.02 0.02 0.02 0.01 0.02 0.02 0.02 0.02 0.04 0.03 0.03 0.03 0.03 0.02 0.02 0.02 0.02
0.02 0.05 0.06 0.06 0.03 0.02 0.01 0.00 0.00 0.00 0.00 0.00 0.00 0.00 0.00 0.00 0.01 0.01 0.00 0.00 0.00 0.01 0.01 0.00 0.01 0.03 0.03 0.01 0.01 0.02 0.02 0.02 0.02 0.02 0.03 0.03 0.03 0.02 0.02 0.02 0.04 0.04 0.04 0.03 0.03 0.03 0.02 0.02 0.02
0.02 0.04 0.05 0.05 0.03 0.01 0.01 0.00 0.00 0.00 0.00 0.00 0.00 0.00 0.00 0.00 0.00 0.01 0.00 0.00 0.01 0.01 0.01 0.01 0.01 0.03 0.03 0.02 0.01 0.02 0.02 0.02 0.02 0.02 0.02 0.03 0.04 0.04 0.03 0.02 0.04 0.04 0.04 0.03 0.03 0.03 0.02 0.02 0.02
0.02 0.03 0.04 0.04 0.03 0.01 0.00 0.00 0.01 0.00 0.00 0.00 0.01 0.01 0.00 0.00 0.00 0.00 0.01 0.01 0.02 0.03 0.01 0.01 0.02 0.04 0.04 0.03 0.02 0.02 0.02 0.01 0.01 0.01 0.02 0.03 0.04 0.05 0.04 0.06 0.11 0.10 0.08 0.05 0.04 0.03 0.03 0.03 0.03
0.02 0.02 0.02 0.02 0.02 0.01 0.00 0.00 0.00 0.00 0.01 0.01 0.01 0.01 0.01 0.00 0.00 0.00 0.01 0.01 0.02 0.03 0.02 0.01 0.02 0.04 0.04 0.04 0.04 0.03 0.02 0.01 0.01 0.02 0.03 0.04 0.04 0.05 0.05 0.08 0.08 0.06 0.05 0.05 0.03 0.02 0.03 0.03 0.03
0.02 0.02 0.02 0.01 0.02 0.01 0.01 0.00 0.00 0.00 0.01 0.00 0.00 0.01 0.01 0.00 0.00 0.00 0.01 0.01 0.02 0.03 0.03 0.03 0.02 0.04 0.05 0.07 0.06 0.04 0.02 0.01 0.01 0.02 0.03 0.05 0.04 0.05 0.05 0.05 0.04 0.03 0.03 0.03 0.05 0.06 0.05 0.04 0.02
0.02 0.02 0.01 0.01 0.02 0.02 0.01 0.00 0.00 0.00 0.00 0.00 0.00 0.01 0.01 0.01 0.01 0.01 0.01 0.01 0.02 0.03 0.04 0.04 0.03 0.06 0.06 0.07 0.07 0.04 0.02 0.01 0.01 0.01 0.02 0.03 0.03 0.04 0.04 0.04 0.04 0.03 0.04 0.04 0.05 0.05 0.04 0.03 0.01
0.02 0.02 0.01 0.01 0.01 0.01 0.01 0.01 0.00 0.00 0.00 0.00 0.00 0.01 0.01 0.01 0.01 0.02 0.02 0.02 0.02 0.02 0.03 0.04 0.06 0.07 0.07 0.07 0.06 0.04 0.02 0.02 0.01 0.01 0.01 0.02 0.02 0.02 0.02 0.02 0.03 0.03 0.03 0.04 0.04 0.04 0.05 0.03 0.01
0.02 0.02 0.01 0.00 0.00 0.00 0.00 0.01 0.00 0.00 0.00 0.01 0.00 0.00 0.00 0.01 0.02 0.03 0.03 0.03 0.03 0.03 0.03 0.03 0.04 0.05 0.06 0.06 0.04 0.03 0.03 0.03 0.01 0.01 0.01 0.02 0.02 0.02 0.01 0.02 0.04 0.03 0.03 0.02 0.02 0.02 0.03 0.03 0.02
0.02 0.02 0.01 0.01 0.00 0.00 0.00 0.00 0.00 0.00 0.01 0.01 0.01 0.00 0.00 0.01 0.02 0.03 0.04 0.03 0.03 0.02 0.01 0.02 0.02 0.03 0.05 0.04 0.03 0.04 0.04 0.04 0.03 0.02 0.01 0.02 0.02 0.01 0.01 0.01 0.01 0.01 0.01 0.02 0.02 0.01 0.02 0.02 0.02
0.01 0.00 0.01 0.01 0.00 0.00 0.00 0.00 0.00 0.00 0.00 0.00 0.00 0.00 0.00 0.00 0.01 0.02 0.03 0.02 0.03 0.03 0.02 0.02 0.02 0.02 0.03 0.04 0.03 0.03 0.04 0.03 0.03 0.02 0.01 0.01 0.01 0.01 0.01 0.01 0.01 0.01 0.01 0.02 0.02 0.01 0.01 0.02 0.02
0.00 0.00 0.00 0.01 0.01 0.00 0.00 0.00 0.00 0.00 0.00 0.00 0.00 0.00 0.00 0.00 0.01 0.01 0.03 0.03 0.03 0.04 0.03 0.02 0.02 0.02 0.03 0.04 0.03 0.03 0.03 0.02 0.02 0.02 0.01 0.01 0.01 0.01 0.01 0.01 0.01 0.01 0.01 0.01 0.01 0.01 0.01 0.01 0.02
0.00 0.00 0.00 0.00 0.00 0.00 0.00 0.00 0.00 0.00 0.00 0.00 0.00 0.00 0.00 0.01 0.01 0.01 0.02 0.03 0.04 0.04 0.03 0.01 0.02 0.02 0.03 0.03 0.03 0.03 0.03 0.03 0.03 0.02 0.02 0.01 0.01 0.01 0.01 0.01 0.01 0.01 0.01 0.01 0.01 0.01 0.01 0.00 0.01
0.00 0.00 0.00 0.00 0.00 0.00 0.00 0.00 0.00 0.00 0.00 0.00 0.00 0.00 0.00 0.00 0.00 0.01 0.01 0.02 0.04 0.05 0.05 0.02 0.01 0.02 0.03 0.02 0.01 0.02 0.04 0.05 0.04 0.03 0.03 0.02 0.01 0.01 0.00 0.00 0.01 0.01 0.01 0.01 0.01 0.01 0.01 0.01 0.01
0.00 0.00 0.00 0.00 0.00 0.00 0.00 0.00 0.00 0.00 0.00 0.00 0.00 0.00 0.00 0.00 0.00 0.01 0.01 0.01 0.03 0.05 0.07 0.07 0.03 0.03 0.04 0.03 0.01 0.01 0.02 0.04 0.04 0.03 0.03 0.02 0.02 0.01 0.01 0.01 0.00 0.01 0.01 0.01 0.01 0.01 0.01 0.01 0.01
0.01 0.00 0.00 0.00 0.00 0.00 0.00 0.00 0.00 0.00 0.00 0.00 0.00 0.00 0.00 0.00 0.00 0.00 0.01 0.01 0.03 0.04 0.06 0.08 0.07 0.04 0.05 0.06 0.04 0.02 0.02 0.03 0.04 0.04 0.03 0.03 0.03 0.03 0.02 0.01 0.01 0.01 0.01 0.02 0.01 0.01 0.01 0.01 0.01
0.01 0.00 0.00 0.00 0.00 0.00 0.00 0.00 0.00 0.00 0.00 0.00 0.00 0.00 0.00 0.00 0.00 0.01 0.01 0.01 0.02 0.04 0.05 0.06 0.07 0.06 0.06 0.07 0.08 0.06 0.03 0.02 0.02 0.02 0.02 0.02 0.03 0.04 0.04 0.03 0.01 0.01 0.02 0.02 0.02 0.02 0.01 0.01 0.01
0.01 0.00 0.00 0.00 0.00 0.00 0.00 0.00 0.00 0.00 0.00 0.00 0.00 0.00 0.00 0.00 0.00 0.01 0.01 0.02 0.03 0.04 0.05 0.05 0.05 0.06 0.06 0.06 0.06 0.06 0.05 0.04 0.04 0.03 0.02 0.01 0.02 0.02 0.03 0.03 0.02 0.02 0.02 0.02 0.02 0.02 0.01 0.01 0.01
0.00 0.01 0.01 0.00 0.00 0.00 0.00 0.00 0.00 0.00 0.00 0.00 0.00 0.01 0.01 0.00 0.00 0.01 0.01 0.02 0.02 0.03 0.04 0.05 0.05 0.06 0.05 0.06 0.06 0.06 0.06 0.06 0.05 0.05 0.05 0.03 0.02 0.02 0.02 0.03 0.03 0.03 0.03 0.02 0.03 0.03 0.02 0.01 0.01
0.00 0.01 0.01 0.01 0.00 0.00 0.00 0.00 0.00 0.00 0.00 0.00 0.00 0.00 0.01 0.01 0.00 0.01 0.01 0.02 0.02 0.02 0.03 0.04 0.05 0.04 0.04 0.05 0.06 0.05 0.06 0.06 0.06 0.06 0.06 0.06 0.05 0.03 0.02 0.02 0.03 0.03 0.04 0.04 0.03 0.03 0.03 0.02 0.01
0.01 0.00 0.00 0.00 0.01 0.01 0.00 0.01 0.01 0.00 0.00 0.00 0.00 0.00 0.01 0.01 0.01 0.01 0.01 0.01 0.01 0.02 0.02 0.03 0.04 0.03 0.03 0.03 0.04 0.04 0.04 0.04 0.04 0.04 0.04 0.05 0.06 0.06 0.04 0.04 0.05 0.07 0.07 0.09 0.07 0.05 0.05 0.04 0.03
0.00 0.00 0.00 0.00 0.01 0.01 0.00 0.01 0.01 0.00 0.00 0.00 0.00 0.01 0.00 0.01 0.01 0.01 0.01 0.01 0.01 0.02 0.02 0.02 0.02 0.02 0.02 0.02 0.03 0.03 0.03 0.03 0.03 0.04 0.04 0.04 0.04 0.05 0.06 0.07 0.08 0.10 0.09 0.10 0.09 0.08 0.06 0.05 0.05
0.01 0.01 0.01 0.01 0.01 0.02 0.00 0.01 0.00 0.00 0.00 0.00 0.00 0.01 0.01 0.01 0.01 0.01 0.01 0.01 0.01 0.01 0.02 0.02 0.02 0.02 0.01 0.01 0.02 0.03 0.03 0.04 0.04 0.05 0.05 0.05 0.05 0.06 0.06 0.07 0.09 0.11 0.09 0.08 0.09 0.09 0.08 0.06 0.04
0.01 0.02 0.03 0.02 0.03 0.01 0.00 0.00 0.00 0.00 0.00 0.00 0.00 0.00 0.01 0.01 0.01 0.02 0.02 0.01 0.01 0.01 0.01 0.01 0.01 0.01 0.01 0.01 0.01 0.01 0.02 0.03 0.04 0.05 0.06 0.05 0.06 0.06 0.06 0.07 0.09 0.10 0.10 0.10 0.10 0.09 0.07 0.05 0.04
0.01 0.01 0.02 0.02 0.01 0.01 0.00 0.00 0.00 0.00 0.00 0.00 0.00 0.00 0.00 0.01 0.01 0.01 0.01 0.01 0.01 0.01 0.01 0.01 0.01 0.01 0.01 0.00 0.00 0.00 0.01 0.02 0.03 0.04 0.05 0.05 0.05 0.05 0.05 0.06 0.10 0.09 0.07 0.08 0.09 0.08 0.07 0.06 0.05
0.01 0.01 0.01 0.02 0.01 0.01 0.01 0.01 0.00 0.00 0.00 0.00 0.00 0.00 0.00 0.00 0.00 0.01 0.01 0.01 0.01 0.01 0.01 0.01 0.00 0.00 0.00 0.00 0.00 0.00 0.00 0.01 0.02 0.03 0.03 0.03 0.03 0.03 0.04 0.05 0.07 0.07 0.05 0.05 0.07 0.06 0.06 0.05 0.05
0.01 0.01 0.02 0.03 0.03 0.02 0.01 0.01 0.01 0.00 0.00 0.00 0.00 0.00 0.00 0.00 0.00 0.00 0.00 0.00 0.00 0.01 0.01 0.01 0.01 0.00 0.00 0.00 0.00 0.00 0.00 0.01 0.01 0.01 0.02 0.02 0.02 0.02 0.02 0.03 0.03 0.04 0.04 0.04 0.06 0.05 0.04 0.04 0.03
0.01 0.01 0.02 0.03 0.03 0.02 0.01 0.01 0.01 0.01 0.00 0.00 0.00 0.00 0.00 0.00 0.00 0.00 0.00 0.00 0.00 0.00 0.00 0.01 0.01 0.01 0.01 0.01 0.00 0.00 0.00 0.01 0.01 0.01 0.01 0.02 0.02 0.02 0.02 0.01 0.01 0.01 0.01 0.01 0.02 0.02 0.03 0.03 0.03
0.01 0.01 0.02 0.02 0.02 0.01 0.01 0.01 0.01 0.01 0.00 0.00 0.00 0.00 0.00 0.00 0.00 0.00 0.00 0.00 0.00 0.00 0.00 0.00 0.00 0.00 0.00 0.01 0.01 0.01 0.01 0.01 0.01 0.01 0.01 0.02 0.02 0.02 0.02 0.02 0.01 0.01 0.01 0.01 0.01 0.01 0.01 0.01 0.01
MSLP
1013.95 1014.01 1014.19 1014.45 1014.71 1014.93 1015.03 1015.01 1014.89 1014.71 1014.55 1014.47 1014.54 1014.76 1015.13 1015.61 1016.14 1016.66 1017.14 1017.55 1017.91 1018.23 1018.57 1018.93 1019.35 1019.82 1020.30 1020.76 1021.17 1021.49 1021.74 1021.90 1022.01 1022.09 1022.19 1022.31 1022.47 1022.65 1022.86 1023.06 1023.24 1023.40 1023.52 1023.61 1023.67 1023.70 1023.69 1023.66 1023.60
1014.40 1014.53 1014.73 1014.96 1015.13 1015.21 1015.17 1015.02 1014.78 1014.55 1014.37 1014.33 1014.46 1014.75 1015.18 1015.70 1016.25 1016.75 1017.20 1017.57 1017.89 1018.20 1018.54 1018.94 1019.40 1019.90 1020.42 1020.90 1021.32 1021.66 1021.90 1022.07 1022.20 1022.31 1022.45 1022.61 1022.81 1023.02 1023.24 1023.45 1023.63 1023.78 1023.90 1023.98 1024.04 1024.07 1024.07 1024.04 1023.98
1014.90 1015.08 1015.29 1015.45 1015.51 1015.44 1015.23 1014.93 1014.59 1014.29 1014.12 1014.12 1014.32 1014.70 1015.22 1015.79 1016.36 1016.87 1017.29 1017.63 1017.93 1018.23 1018.58 1018.99 1019.48 1020.01 1020.55 1021.06 1021.49 1021.83 1022.08 1022.26 1022.41 1022.55 1022.72 1022.91 1023.12 1023.35 1023.58 1023.79 1023.96 1024.11 1024.23 1024.32 1024.39 1024.43 1024.44 1024.42 1024.36
1015.38 1015.61 1015.80 1015.88 1015.82 1015.60 1015.24 1014.80 1014.36 1014.02 1013.86 1013.91 1014.20 1014.66 1015.26 1015.89 1016.48 1016.99 1017.40 1017.72 1018.00 1018.29 1018.64 1019.06 1019.57 1020.12 1020.68 1021.20 1021.65 1022.00 1022.27 1022.47 1022.64 1022.81 1022.99 1023.20 1023.43 1023.66 1023.89 1024.09 1024.26 1024.42 1024.55 1024.66 1024.76 1024.82 1024.86 1024.85 1024.80
1015.81 1016.05 1016.21 1016.22 1016.05 1015.70 1015.21 1014.67 1014.17 1013.81 1013.67 1013.78 1014.14 1014.69 1015.34 1016.02 1016.63 1017.14 1017.52 1017.82 1018.09 1018.37 1018.71 1019.14 1019.65 1020.22 1020.79 1021.32 1021.78 1022.15 1022.45 1022.68 1022.88 1023.08 1023.28 1023.51 1023.74 1023.97 1024.19 1024.38 1024.56 1024.73 1024.89 1025.04 1025.17 1025.28 1025.34 1025.35 1025.30
1016.13 1016.38 1016.50 1016.45 1016.20 1015.76 1015.20 1014.60 1014.07 1013.72 1013.62 1013.80 1014.22 1014.82 1015.51 1016.21 1016.82 1017.31 1017.67 1017.95 1018.19 1018.45 1018.78 1019.20 1019.71 1020.28 1020.85 1021.39 1021.86 1022.26 1022.58 1022.85 1023.10 1023.33 1023.57 1023.82 1024.06 1024.29 1024.51 1024.70 1024.89 1025.08 1025.26 1025.45 1025.62 1025.77 1025.86 1025.89 1025.86
1016.34 1016.58 1016.67 1016.58 1016.28 1015.80 1015.22 1014.62 1014.11 1013.81 1013.76 1013.98 1014.45 1015.08 1015.78 1016.46 1017.05 1017.51 1017.84 1018.09 1018.30 1018.54 1018.86 1019.26 1019.76 1020.30 1020.86 1021.40 1021.88 1022.30 1022.66 1022.98 1023.27 1023.56 1023.84 1024.12 1024.38 1024.62 1024.85 1025.05 1025.24 1025.44 1025.66 1025.87 1026.08 1026.26 1026.38 1026.42 1026.39
1016.47 1016.67 1016.74 1016.62 1016.31 1015.85 1015.29 1014.74 1014.30 1014.05 1014.06 1014.32 1014.80 1015.43 1016.10 1016.75 1017.29 1017.70 1018.00 1018.22 1018.41 1018.64 1018.94 1019.32 1019.79 1020.31 1020.84 1021.36 1021.84 1022.27 1022.66 1023.03 1023.38 1023.73 1024.07 1024.39 1024.69 1024.95 1025.18 1025.40 1025.60 1025.81 1026.04 1026.27 1026.50 1026.69 1026.83 1026.88 1026.86
1016.55 1016.71 1016.74 1016.62 1016.33 1015.91 1015.42 1014.95 1014.58 1014.41 1014.46 1014.74 1015.21 1015.79 1016.41 1016.99 1017.47 1017.84 1018.10 1018.30 1018.49 1018.71 1019.00 1019.37 1019.81 1020.29 1020.79 1021.28 1021.74 1022.18 1022.60 1023.01 1023.41 1023.82 1024.22 1024.60 1024.94 1025.24 1025.50 1025.72 1025.93 1026.14 1026.37 1026.60 1026.83 1027.03 1027.17 1027.23 1027.22
1016.63 1016.73 1016.73 1016.60 1016.35 1015.99 1015.58 1015.20 1014.92 1014.80 1014.87 1015.14 1015.55 1016.06 1016.59 1017.09 1017.50 1017.82 1018.06 1018.27 1018.47 1018.71 1019.02 1019.38 1019.81 1020.26 1020.72 1021.18 1021.62 1022.04 1022.47 1022.91 1023.37 1023.83 1024.30 1024.73 1025.13 1025.46 1025.74 1025.98 1026.20 1026.41 1026.63 1026.85 1027.07 1027.26 1027.40 1027.46 1027.46
1016.73 1016.76 1016.73 1016.60 1016.38 1016.08 1015.75 1015.45 1015.23 1015.14 1015.20 1015.41 1015.74 1016.14 1016.56 1016.96 1017.30 1017.59 1017.83 1018.06 1018.30 1018.59 1018.93 1019.33 1019.75 1020.19 1020.63 1021.05 1021.46 1021.87 1022.30 1022.76 1023.25 1023.76 1024.27 1024.76 1025.20 1025.58 1025.89 1026.15 1026.38 1026.59 1026.80 1027.02 1027.22 1027.40 1027.53 1027.61 1027.61
1016.86 1016.83 1016.75 1016.62 1016.42 1016.18 1015.90 1015.65 1015.45 1015.35 1015.37 1015.49 1015.70 1015.97 1016.27 1016.56 1016.83 1017.09 1017.34 1017.62 1017.93 1018.30 1018.71 1019.15 1019.62 1020.07 1020.50 1020.90 1021.29 1021.68 1022.10 1022.56 1023.06 1023.60 1024.14 1024.67 1025.16 1025.58 1025.93 1026.22 1026.46 1026.68 1026.90 1027.10 1027.31 1027.48 1027.62 1027.70 1027.73
1017.01 1016.92 1016.81 1016.67 1016.48 1016.26 1016.02 1015.78 1015.57 1015.42 1015.34 1015.35 1015.42 1015.55 1015.71 1015.90 1016.10 1016.34 1016.62 1016.96 1017.36 1017.81 1018.32 1018.84 1019.36 1019.85 1020.30 1020.71 1021.09 1021.47 1021.88 1022.33 1022.83 1023.37 1023.93 1024.48 1025.00 1025.45 1025.84 1026.17 1026.44 1026.69 1026.92 1027.14 1027.35 1027.54 1027.70 1027.80 1027.86
1017.17 1017.04 1016.90 1016.75 1016.56 1016.34 1016.09 1015.83 1015.57 1015.34 1015.16 1015.02 1014.95 1014.93 1014.97 1015.06 1015.21 1015.43 1015.74 1016.13 1016.61 1017.17 1017.77 1018.38 1018.98 1019.53 1020.02 1020.46 1020.86 1021.24 1021.64 1022.07 1022.56 1023.09 1023.64 1024.20 1024.73 1025.21 1025.63 1026.00 1026.32 1026.61 1026.87 1027.13 1027.37 1027.59 1027.78 1027.92 1028.02
1017.33 1017.18 1017.03 1016.86 1016.66 1016.42 1016.15 1015.83 1015.50 1015.18 1014.87 1014.61 1014.40 1014.26 1014.18 1014.19 1014.29 1014.50 1014.83 1015.26 1015.80 1016.43 1017.11 1017.81 1018.48 1019.10 1019.65 1020.14 1020.57 1020.97 1021.37 1021.79 1022.26 1022.76 1023.30 1023.84 1024.37 1024.86 1025.31 1025.72 1026.09 1026.43 1026.75 1027.06 1027.36 1027.63 1027.86 1028.05 1028.19
1017.50 1017.35 1017.19 1017.02 1016.81 1016.54 1016.22 1015.84 1015.43 1015.00 1014.59 1014.22 1013.90 1013.66 1013.50 1013.45 1013.52 1013.71 1014.03 1014.48 1015.05 1015.71 1016.43 1017.17 1017.90 1018.58 1019.20 1019.74 1020.21 1020.65 1021.06 1021.48 1021.93 1022.40 1022.90 1023.42 1023.93 1024.43 1024.90 1025.34 1025.76 1026.16 1026.54 1026.91 1027.27 1027.60 1027.89 1028.14 1028.33
1017.68 1017.55 1017.41 1017.24 1017.01 1016.71 1016.33 1015.88 1015.39 1014.88 1014.38 1013.93 1013.55 1013.25 1013.06 1012.98 1013.02 1013.19 1013.49 1013.91 1014.46 1015.10 1015.81 1016.55 1017.30 1018.02 1018.67 1019.26 1019.79 1020.26 1020.70 1021.13 1021.55 1022.00 1022.46 1022.94 1023.43 1023.91 1024.39 1024.86 1025.32 1025.76 1026.21 1026.64 1027.06 1027.46 1027.81 1028.12 1028.37
1017.91 1017.82 1017.70 1017.54 1017.29 1016.94 1016.51 1015.99 1015.43 1014.85 1014.30 1013.81 1013.41 1013.11 1012.92 1012.84 1012.87 1013.02 1013.28 1013.65 1014.12 1014.68 1015.32 1016.01 1016.73 1017.43 1018.10 1018.73 1019.29 1019.80 1020.27 1020.70 1021.12 1021.55 1021.98 1022.42 1022.87 1023.33 1023.81 1024.28 1024.76 1025.25 1025.74 1026.22 1026.70 1027.14 1027.56 1027.93 1028.24
1018.20 1018.15 1018.07 1017.91 1017.64 1017.26 1016.76 1016.18 1015.55 1014.93 1014.36 1013.87 1013.48 1013.22 1013.07 1013.02 1013.07 1013.20 1013.41 1013.70 1014.06 1014.50 1015.01 1015.59 1016.22 1016.87 1017.52 1018.14 1018.73 1019.26 1019.75 1020.20 1020.62 1021.02 1021.42 1021.83 1022.25 1022.69 1023.14 1023.62 1024.11 1024.62 1025.13 1025.64 1026.15 1026.64 1027.10 1027.52 1027.89
1018.55 1018.56 1018.50 1018.34 1018.06 1017.62 1017.07 1016.42 1015.75 1015.09 1014.51 1014.05 1013.72 1013.52 1013.45 1013.46 1013.54 1013.66 1013.82 1014.01 1014.24 1014.53 1014.88 1015.31 1015.80 1016.35 1016.94 1017.53 1018.10 1018.65 1019.15 1019.61 1020.03 1020.42 1020.80 1021.18 1021.57 1021.98 1022.42 1022.88 1023.37 1023.88 1024.40 1024.92 1025.45 1025.96 1026.45 1026.90 1027.32
1018.96 1019.02 1018.99 1018.83 1018.51 1018.03 1017.41 1016.70 1015.97 1015.29 1014.72 1014.29 1014.03 1013.92 1013.93 1014.02 1014.15 1014.27 1014.39 1014.49 1014.59 1014.71 1014.89 1015.14 1015.48 1015.90 1016.39 1016.91 1017.45 1017.98 1018.48 1018.93 1019.34 1019.73 1020.09 1020.45 1020.82 1021.22 1021.64 1022.09 1022.57 1023.07 1023.58 1024.10 1024.61 1025.12 1025.61 1026.09 1026.54
1019.39 1019.49 1019.48 1019.32 1018.96 1018.43 1017.75 1016.98 1016.20 1015.49 1014.92 1014.54 1014.34 1014.31 1014.40 1014.57 1014.75 1014.90 1014.98 1015.01 1015.00 1014.98 1014.99 1015.07 1015.25 1015.53 1015.90 1016.33 1016.81 1017.29 1017.76 1018.19 1018.59 1018.96 1019.31 1019.65 1020.01 1020.39 1020.80 1021.25 1021.72 1022.20 1022.70 1023.20 1023.70 1024.18 1024.66 1025.13 1025.60
1019.82 1019.95 1019.96 1019.78 1019.39 1018.81 1018.07 1017.24 1016.41 1015.67 1015.10 1014.73 1014.58 1014.61 1014.78 1015.01 1015.24 1015.41 1015.49 1015.47 1015.37 1015.24 1015.12 1015.06 1015.10 1015.24 1015.48 1015.82 1016.20 1016.62 1017.04 1017.43 1017.79 1018.13 1018.46 1018.79 1019.14 1019.51 1019.92 1020.36 1020.83 1021.31 1021.80 1022.28 1022.74 1023.20 1023.66 1024.10 1024.55
1020.20 1020.36 1020.38 1020.18 1019.77 1019.14 1018.35 1017.47 1016.60 1015.83 1015.24 1014.88 1014.75 1014.82 1015.03 1015.30 1015.57 1015.76 1015.84 1015.80 1015.66 1015.46 1015.25 1015.09 1015.01 1015.03 1015.17 1015.40 1015.69 1016.02 1016.36 1016.69 1017.00 1017.29 1017.58 1017.88 1018.21 1018.58 1018.99 1019.43 1019.91 1020.39 1020.87 1021.34 1021.79 1022.22 1022.64 1023.05 1023.47
1020.54 1020.72 1020.73 1020.53 1020.08 1019.42 1018.59 1017.68 1016.77 1015.98 1015.37 1015.00 1014.86 1014.94 1015.16 1015.46 1015.74 1015.95 1016.04 1016.00 1015.85 1015.62 1015.37 1015.15 1015.00 1014.94 1014.98 1015.11 1015.30 1015.53 1015.78 1016.01 1016.24 1016.47 1016.70 1016.96 1017.26 1017.61 1018.01 1018.46 1018.94 1019.43 1019.92 1020.39 1020.83 1021.25 1021.63 1022.01 1022.39
1020.84 1021.02 1021.02 1020.79 1020.33 1019.64 1018.79 1017.86 1016.94 1016.13 1015.50 1015.11 1014.95 1015.01 1015.22 1015.51 1015.79 1016.01 1016.11 1016.09 1015.95 1015.74 1015.48 1015.24 1015.06 1014.95 1014.92 1014.96 1015.06 1015.19 1015.32 1015.46 1015.58 1015.71 1015.86 1016.05 1016.29 1016.60 1016.98 1017.42 1017.91 1018.42 1018.92 1019.41 1019.86 1020.27 1020.64 1020.99 1021.33
1021.13 1021.27 1021.24 1020.99 1020.50 1019.80 1018.94 1018.01 1017.08 1016.27 1015.64 1015.23 1015.05 1015.08 1015.26 1015.52 1015.79 1016.00 1016.12 1016.12 1016.01 1015.83 1015.61 1015.38 1015.20 1015.06 1014.99 1014.97 1014.98 1015.01 1015.03 1015.04 1015.05 1015.06 1015.10 1015.19 1015.35 1015.60 1015.94 1016.35 1016.83 1017.34 1017.86 1018.37 1018.84 1019.27 1019.66 1020.00 1020.32
1021.41 1021.50 1021.40 1021.10 1020.58 1019.86 1019.00 1018.08 1017.18 1016.38 1015.76 1015.34 1015.15 1015.15 1015.29 1015.52 1015.77 1015.98 1016.10 1016.13 1016.07 1015.93 1015.75 1015.57 1015.40 1015.27 1015.18 1015.11 1015.05 1014.98 1014.90 1014.79 1014.67 1014.55 1014.47 1014.44 1014.49 1014.64 1014.90 1015.26 1015.71 1016.21 1016.74 1017.27 1017.77 1018.23 1018.65 1019.01 1019.33
1021.69 1021.68 1021.50 1021.12 1020.54 1019.80 1018.94 1018.04 1017.17 1016.41 1015.81 1015.42 1015.22 1015.21 1015.33 1015.54 1015.77 1015.97 1016.10 1016.16 1016.14 1016.06 1015.93 1015.80 1015.66 1015.55 1015.44 1015.34 1015.23 1015.09 1014.91 1014.70 1014.46 1014.22 1014.00 1013.84 1013.76 1013.79 1013.94 1014.22 1014.59 1015.05 1015.57 1016.11 1016.64 1017.14 1017.60 1018.01 1018.36
1021.94 1021.81 1021.50 1021.02 1020.37 1019.59 1018.72 1017.84 1017.01 1016.30 1015.75 1015.39 1015.23 1015.22 1015.35 1015.55 1015.77 1015.98 1016.13 1016.22 1016.24 1016.21 1016.14 1016.05 1015.95 1015.86 1015.75 1015.64 1015.49 1015.29 1015.05 1014.75 1014.41 1014.05 1013.71 1013.42 1013.20 1013.10 1013.11 1013.27 1013.55 1013.94 1014.41 1014.93 1015.47 1016.01 1016.51 1016.97 1017.38
Thickness
5673 5679 5682 5678 5666 5660 5665 5684 5696 5698 5699 5703 5705 5704 5700 5694 5688 5679 5689 5697 5697 5694 5689 5686 5685 5683 5682 5680 5678 5676 5675 5674 5672 5671 5671 5670 5669 5668 5667 5666 5666 5665 5664 5663 5662 5662 5661 5660 5659
5670 5676 5674 5667 5656 5653 5667 5685 5689 5693 5697 5700 5700 5700 5697 5690 5692 5688 5689 5692 5692 5690 5686 5683 5681 5679 5678 5677 5675 5673 5672 5670 5669 5668 5667 5666 5665 5664 5663 5662 5662 5661 5660 5659 5658 5658 5657 5656 5655
5666 5670 5662 5658 5656 5657 5669 5683 5686 5691 5696 5695 5692 5694 5691 5685 5688 5686 5687 5689 5688 5685 5682 5679 5677 5676 5674 5673 5671 5670 5668 5667 5665 5664 5664 5662 5661 5660 5659 5659 5658 5657 5656 5655 5655 5654 5653 5652 5651
5661 5659 5657 5650 5652 5666 5674 5681 5684 5684 5687 5690 5689 5683 5683 5683 5684 5683 5684 5684 5683 5681 5678 5675 5673 5672 5671 5669 5668 5666 5665 5663 5662 5661 5660 5659 5657 5656 5655 5655 5654 5653 5652 5651 5651 5650 5649 5648 5647
5654 5650 5643 5644 5653 5666 5676 5680 5681 5679 5679 5683 5683 5678 5673 5676 5679 5679 5679 5680 5678 5676 5674 5671 5669 5668 5666 5665 5664 5662 5661 5659 5658 5657 5656 5654 5653 5652 5651 5651 5649 5648 5648 5647 5646 5645 5644 5644 5643
5642 5644 5636 5639 5652 5663 5671 5675 5675 5674 5675 5677 5676 5674 5668 5672 5673 5673 5674 5674 5673 5671 5669 5667 5664 5663 5662 5661 5660 5658 5657 5655 5654 5652 5651 5650 5649 5648 5647 5646 5645 5644 5643 5643 5642 5641 5640 5639 5638
5633 5634 5635 5643 5648 5655 5664 5670 5668 5666 5667 5669 5673 5668 5663 5665 5667 5668 5668 5668 5667 5665 5664 5662 5660 5658 5657 5656 5655 5653 5652 5651 5649 5648 5647 5645 5644 5643 5642 5642 5641 5640 5639 5638 5637 5636 5635 5634 5633
5633 5631 5634 5640 5643 5648 5660 5662 5663 5662 5661 5667 5668 5660 5656 5659 5662 5662 5662 5662 5660 5659 5658 5657 5655 5653 5652 5651 5650 5649 5647 5646 5645 5643 5642 5640 5639 5638 5637 5637 5636 5635 5634 5633 5632 5631 5630 5629 5628
5629 5620 5626 5637 5641 5645 5653 5652 5655 5657 5656 5657 5658 5654 5654 5655 5656 5654 5653 5653 5653 5653 5652 5651 5650 5649 5648 5646 5645 5644 5642 5641 5639 5638 5637 5636 5635 5634 5633 5631 5630 5630 5628 5627 5626 5626 5625 5623 5623
5619 5614 5627 5638 5641 5642 5644 5645 5646 5646 5645 5647 5647 5646 5647 5647 5647 5646 5645 5645 5645 5645 5646 5646 5645 5644 5643 5642 5640 5639 5637 5636 5634 5633 5632 5631 5630 5629 5628 5627 5625 5624 5623 5622 5621 5620 5619 5618 5618
5617 5616 5627 5632 5635 5636 5635 5636 5640 5636 5634 5639 5640 5639 5639 5639 5639 5639 5639 5639 5639 5639 5640 5640 5640 5639 5638 5637 5635 5634 5633 5631 5629 5628 5627 5626 5625 5624 5622 5621 5620 5619 5618 5617 5616 5615 5614 5614 5613
5612 5616 5621 5623 5624 5625 5625 5628 5628 5628 5629 5634 5637 5636 5634 5632 5632 5633 5633 5634 5634 5634 5634 5635 5635 5634 5633 5631 5630 5629 5627 5626 5624 5623 5622 5621 5619 5618 5617 5616 5615 5614 5613 5612 5611 5610 5610 5609 5608
5605 5608 5612 5614 5614 5615 5616 5616 5618 5622 5626 5629 5630 5629 5627 5627 5627 5628 5629 5630 5630 5628 5628 5628 5629 5628 5627 5626 5625 5624 5622 5621 5619 5618 5616 5615 5614 5613 5612 5610 5609 5608 5607 5606 5605 5605 5605 5604 5603
5601 5602 5604 5606 5607 5608 5606 5608 5611 5618 5622 5622 5621 5620 5620 5620 5621 5621 5622 5622 5623 5623 5622 5622 5622 5622 5621 5620 5619 5619 5617 5615 5614 5612 5611 5609 5608 5607 5606 5605 5603 5602 5601 5601 5600 5599 5599 5598 5597
5592 5590 5594 5600 5602 5602 5599 5599 5607 5615 5617 5616 5615 5614 5614 5614 5614 5614 5615 5616 5617 5617 5617 5616 5616 5615 5615 5614 5613 5612 5611 5610 5608 5607 5605 5604 5602 5601 5600 5599 5597 5596 5595 5595 5594 5593 5592 5592 5591
5582 5581 5583 5598 5598 5597 5588 5591 5606 5612 5611 5609 5609 5608 5606 5607 5607 5607 5608 5608 5609 5610 5610 5610 5610 5609 5608 5607 5607 5606 5605 5604 5602 5600 5599 5598 5597 5595 5594 5593 5592 5590 5589 5588 5587 5587 5585 5585 5584
5573 5574 5583 5589 5593 5592 5584 5587 5598 5604 5604 5602 5602 5601 5599 5599 5600 5600 5600 5601 5601 5602 5603 5603 5602 5602 5601 5600 5600 5599 5598 5597 5595 5594 5593 5592 5591 5590 5589 5587 5585 5584 5583 5582 5581 5580 5579 5578 5578
5570 5574 5581 5583 5585 5583 5578 5582 5589 5595 5596 5595 5594 5593 5592 5592 5592 5592 5592 5593 5593 5594 5595 5595 5595 5594 5594 5593 5592 5592 5591 5590 5589 5587 5586 5585 5584 5583 5582 5581 5579 5578 5576 5575 5574 5573 5573 5572 5571
5567 5566 5569 5576 5577 5573 5572 5576 5583 5586 5587 5585 5584 5584 5584 5585 5586 5585 5585 5585 5585 5586 5587 5588 5587 5587 5586 5585 5585 5584 5583 5583 5582 5581 5580 5579 5577 5576 5575 5574 5572 5571 5569 5568 5567 5566 5565 5564 5563
5556 5554 5557 5565 5567 5564 5563 5567 5574 5579 5579 5580 5578 5576 5576 5576 5576 5576 5576 5576 5576 5577 5578 5580 5580 5579 5578 5578 5578 5578 5577 5576 5575 5574 5572 5571 5570 5569 5568 5567 5565 5564 5563 5561 5560 5560 5558 5557 5556
5547 5545 5547 5550 5553 5556 5552 5555 5568 5575 5576 5575 5573 5571 5570 5568 5566 5566 5566 5566 5567 5568 5569 5571 5571 5571 5571 5570 5570 5569 5569 5568 5567 5566 5565 5564 5563 5562 5561 5560 5558 5557 5556 5555 5553 5553 5552 5550 5549
5536 5543 5541 5539 5533 5538 5547 5537 5562 5568 5565 5565 5563 5560 5559 5559 5559 5558 5557 5557 5558 5559 5561 5562 5563 5563 5563 5562 5562 5561 5561 5561 5561 5559 5558 5557 5556 5555 5554 5553 5551 5550 5549 5548 5547 5546 5545 5544 5542
5530 5531 5530 5529 5525 5523 5536 5531 5547 5560 5557 5557 5555 5552 5550 5549 5549 5549 5548 5548 5549 5550 5552 5553 5554 5554 5554 5554 5553 5553 5553 5553 5553 5552 5550 5549 5548 5547 5546 5545 5544 5543 5542 5540 5540 5539 5538 5537 5536
5520 5519 5520 5519 5514 5510 5533 5530 5539 5547 5555 5553 5548 5544 5541 5540 5539 5539 5538 5538 5538 5540 5541 5543 5544 5544 5544 5544 5544 5544 5544 5544 5544 5544 5543 5542 5541 5540 5539 5538 5537 5536 5534 5533 5533 5532 5531 5530 5529
5509 5503 5500 5501 5500 5511 5538 5530 5532 5543 5547 5544 5538 5535 5532 5530 5528 5526 5526 5525 5526 5528 5529 5532 5533 5534 5534 5534 5535 5535 5535 5535 5535 5535 5534 5534 5533 5532 5531 5530 5529 5528 5527 5525 5525 5524 5523 5522 5521
5498 5500 5494 5493 5503 5517 5523 5519 5525 5533 5533 5532 5528 5524 5521 5518 5516 5515 5514 5513 5514 5516 5517 5519 5521 5522 5523 5524 5525 5525 5525 5525 5525 5525 5525 5525 5525 5524 5523 5522 5520 5520 5519 5518 5517 5515 5514 5513 5513
5493 5491 5499 5491 5485 5486 5506 5517 5517 5522 5520 5519 5516 5513 5509 5506 5505 5503 5502 5502 5502 5503 5505 5506 5508 5510 5511 5513 5514 5514 5515 5515 5515 5515 5516 5515 5515 5515 5514 5513 5512 5511 5510 5509 5508 5506 5505 5504 5503
5485 5489 5479 5476 5475 5485 5508 5513 5512 5509 5509 5507 5504 5501 5498 5495 5493 5491 5490 5489 5489 5490 5492 5494 5495 5497 5499 5500 5502 5503 5503 5505 5505 5505 5506 5505 5505 5505 5505 5504 5503 5502 5501 5500 5499 5497 5496 5494 5493
5467 5470 5473 5475 5479 5482 5488 5498 5505 5505 5503 5497 5493 5490 5486 5483 5481 5479 5478 5478 5478 5479 5480 5481 5483 5484 5486 5487 5488 5490 5491 5493 5494 5494 5495 5495 5495 5495 5495 5494 5493 5492 5491 5490 5488 5487 5486 5485 5484
5461 5463 5463 5460 5464 5474 5479 5480 5492 5492 5490 5486 5481 5478 5475 5471 5469 5468 5468 5467 5466 5467 5467 5468 5470 5472 5473 5475 5476 5477 5479 5480 5481 5482 5483 5483 5484 5484 5484 5484 5483 5481 5481 5480 5479 5477 5476 5475 5474